Flag for Canada Weather past 2 weeks in Kenora, Ontario, Canada

Now
18 °F

Sunny.


Feels Like: 6 °F
Forecast: 14 / 35 °F
Wind: 9 mph from East

Location: Kenora


UV Index: 3 (Moderate)

Visibility: 15 mi


Pressure: 30.43 "Hg

Humidity: 53%

Dew point: 3 °F

Location of KenoraLocation

Historic Weather in Kenora

°F

Kenora temperature yesterday

Maximum temperature yesterday: 32 °F (at 3:00 PM)
Minimum temperature yesterday: 12 °F (at 3:00 AM)
Average temperature yesterday: 23 °F

Past Weeks' High & Low Weather Summary

 TemperatureHumidityPressure
High50 °F (Apr 9, 2:00 PM)100% (Apr 12, 5:00 PM)30.42 "Hg (Apr 12, 5:00 PM)
Low1 °F (Apr 15, 6:00 AM)28% (Apr 16, 10:00 PM)29.33 "Hg (Apr 9, 6:00 PM)
Average30 °F60%29.98 "Hg
* Reported Apr 2 7:00 AM — Apr 17 7:00 AM, Kenora, Weather by CustomWeather, © 2014

Note: Actual official high and low records may vary slightly from our data, if they occured in-between our weather recording intervals... More about our weather records

Advertising

Historic Weather Conditions — Data for Previous 24 hours

 ConditionsComfort  
Time TempWeatherWind HumidityBarometerVisibility
7:00 AM
Apr 17
16 °FClear.8 mph53%30.42 "Hg15 mi
6:00 AM16 °FPassing clouds.8 mph53%30.41 "Hg15 mi
5:00 AM16 °FClear.7 mph53%30.40 "Hg15 mi
4:00 AM18 °FClear.8 mph49%30.40 "Hg15 mi
3:00 AM19 °FClear.7 mph45%30.39 "Hg15 mi
2:00 AM19 °FClear.7 mph45%30.40 "Hg15 mi
1:00 AM21 °FClear.7 mph38%30.39 "Hg15 mi
12:00 AM23 °FClear.7 mph36%30.38 "Hg15 mi
11:00 PM
Apr 16
25 °FClear.7 mph33%30.38 "Hg15 mi
10:00 PM27 °FClear.5 mph28%30.37 "Hg15 mi
9:00 PM27 °FPassing clouds.5 mph31%30.37 "Hg15 mi
8:00 PM28 °FPassing clouds.6 mph29%30.35 "Hg15 mi
7:00 PM30 °FPassing clouds.8 mph29%30.34 "Hg15 mi
6:00 PM32 °FPassing clouds.8 mph29%30.33 "Hg15 mi
5:00 PM32 °FScattered clouds.9 mph32%30.32 "Hg15 mi
4:00 PM32 °FScattered clouds.8 mph29%30.31 "Hg15 mi
3:00 PM32 °FScattered clouds.9 mph32%30.31 "Hg15 mi
2:00 PM30 °FPassing clouds.14 mph29%30.31 "Hg15 mi
1:00 PM28 °FPassing clouds.13 mph31%30.31 "Hg15 mi
12:00 PM27 °FScattered clouds.9 mph33%30.31 "Hg15 mi
11:00 AM27 °FScattered clouds.8 mph31%30.31 "Hg15 mi
10:00 AM23 °FScattered clouds.3 mph39%30.32 "Hg15 mi
9:00 AM19 °FPartly sunny.6 mph45%30.31 "Hg15 mi
8:00 AM12 °FPartly sunny.5 mph57%30.29 "Hg15 mi
Weather by CustomWeather, © 2014

See weather overview